Flag for Colombia Weather past 2 weeks in Medellin, Colombia

Now
63 °F

Thunderstorms. Broken clouds.


Feels Like: 63 °F
Forecast: N/A
Wind: No wind

Location: Rionegro / J. M. Cordova

Current Time: Apr 18, 2015 at 4:21:22 PM

Latest Report: Apr 18, 2015 at 4:00 PM


Visibility: N/A

Pressure: 30.21 "Hg

Humidity: 88%

Dew point: 59 °F

Location of MedellinLocation

Historic Weather in Medellin — Graph

°F

Medellin temperature yesterday

Maximum temperature yesterday: 68 °F (at 12:00 PM)
Minimum temperature yesterday: 57 °F (at 1:00 AM)
Average temperature yesterday: 60 °F

Past Weeks' High & Low Weather Summary

 TemperatureHumidityPressure
High75 °F (Apr 8, 4:00 PM)100% (Apr 5, 4:00 AM)30.41 "Hg (Apr 5, 4:00 AM)
Low55 °F (Apr 8, 7:00 AM)41% (Apr 8, 4:00 PM)30.06 "Hg (Apr 8, 9:00 AM)
Average63 °F83%30.26 "Hg
* Reported Apr 3 3:00 PM — Apr 18 3:00 PM, Medellin, Weather by CustomWeather, © 2015

Note: Actual official high and low records may vary slightly from our data, if they occured in-between our weather recording intervals... More about our weather records

Advertising

Medellin weather history for previous 24 hours

 ConditionsComfort  
Time TempWeatherWind HumidityBarometerVisibility
3:00 PM
Sat, Apr 18
64 °FThunderstorms. Broken clouds.No wind83%30.20 "HgN/A
2:00 PM72 °FThunderstorms. Scattered clouds.No wind53%30.22 "HgN/A
1:00 PM72 °FScattered showers. Scattered clouds.9 mph57%30.26 "HgN/A
12:00 PM72 °FScattered clouds.No wind61%30.30 "HgN/A
11:00 AM68 °FScattered clouds.2 mph64%30.32 "HgN/A
10:00 AM66 °FScattered clouds.No wind68%30.34 "HgN/A
9:00 AM63 °FScattered clouds.No wind73%30.35 "HgN/A
8:00 AM61 °FPartly sunny.2 mph83%30.34 "HgN/A
7:00 AM59 °FPartly sunny.No wind88%30.32 "HgN/A
6:00 AM59 °FPartly sunny.No wind88%30.30 "Hg6 mi
5:30 AM59 °FPartly cloudy.No wind88%30.30 "HgN/A
5:00 AM59 °FPartly cloudy.No wind88%30.29 "Hg6 mi
4:00 AM59 °FPartly cloudy.No wind94%30.28 "Hg5 mi
3:00 AM59 °FOvercast.3 mph94%30.29 "Hg4 mi
2:00 AM59 °FOvercast.No wind94%30.30 "Hg5 mi
1:00 AM59 °FPassing clouds.No wind94%30.33 "HgN/A
12:00 AM59 °FPassing clouds.No wind94%30.33 "Hg5 mi
11:00 PM
Fri, Apr 17
59 °FPassing clouds.No wind94%30.34 "Hg5 mi
10:00 PM59 °FPassing clouds.No wind94%30.34 "Hg6 mi
9:00 PM61 °FPassing clouds.No wind88%30.33 "Hg5 mi
8:00 PM61 °FPassing clouds.No wind94%30.30 "Hg4 mi
7:00 PM63 °FScattered showers. Passing clouds.No wind88%30.28 "Hg6 mi
6:00 PM63 °FThunderstorms. Broken clouds.No wind88%30.24 "HgN/A
5:00 PM63 °FThunderstorms. Broken clouds.No wind88%30.23 "HgN/A
4:00 PM63 °FScattered showers. Broken clouds.No wind88%30.23 "HgN/A
Weather by CustomWeather, © 2015

See weather overviewHow to use our weather pages